Weather History for Wrangell, AK

Change the Weather History Date:

Saturday, April 20, 2013

  Actual Average Record
Temperature  
Mean Temperature 38 °F -  
Max Temperature 46 °F 49 °F 58 °F (1978)
Min Temperature 30 °F 35 °F 21 °F (1962)
Degree Days  
Heating Degree Days 27    
Moisture  
Dew Point 21 °F    
Average Humidity 53    
Maximum Humidity 86    
Minimum Humidity 29    
Precipitation  
Precipitation 0.00 in - - ()
Sea Level Pressure  
Sea Level Pressure 30.37 in    
Wind  
Wind Speed 6 mph (East)    
Max Wind Speed 10 mph    
Max Gust Speed -    
Visibility 10 miles    
Events      
Averages and records for this station are not official NWS values.
T = Trace of Precipitation, MM = Missing Value Source: NWS Daily Summary

Daily Weather History Graph

Daily Weather History Graph

Search for Another Location

Airport:

Trip Planner

Search our weather history database for the weather conditions in past years. The results will help you decide how hot, cold, wet, or windy it might be!

Date:

Astronomy

Apr. 20, 2013 Rise Set
Actual Time 5:28 AM AKDT 8:08 PM AKDT
Civil Twilight 4:46 AM AKDT 8:51 PM AKDT
Nautical Twilight 3:51 AM AKDT 9:47 PM AKDT
Astronomical Twilight 2:40 AM AKDT 11:00 PM AKDT
Moon 2:04 PM AKDT (4/20) 3:22 AM AKDT (4/20)
Length of Visible Light 16h 04m
Length of Day
14h 40m
Waxing Gibbous, 72% of the Moon is Illuminated
Apr 20
Waxing Gibbous
Apr 25
Full
May 2
Last Quarter
May 9
New
May 17
First Quarter

Hourly Weather History & Observations

Time (AKDT) Temp. Windchill Dew Point Humidity Pressure Visibility Wind Dir Wind Speed Gust Speed Precip Events Conditions
12:16 AM 33.8 °F 28.6 °F 24.8 °F 70% 30.27 in 10.0 mi SE 5.8 mph - N/A   Clear
12:36 AM 33.8 °F 27.7 °F 24.8 °F 70% 30.28 in 10.0 mi SSE 6.9 mph - N/A   Clear
12:56 AM 33.8 °F 28.6 °F 24.8 °F 70% 30.28 in 10.0 mi SSE 5.8 mph - N/A   Clear
1:16 AM 33.8 °F 28.6 °F 24.8 °F 70% 30.29 in 10.0 mi SSE 5.8 mph - N/A   Clear
1:36 AM 33.8 °F 28.6 °F 24.8 °F 70% 30.29 in 10.0 mi SE 5.8 mph - N/A   Clear
1:56 AM 32.0 °F 25.6 °F 24.8 °F 75% 30.30 in 10.0 mi SSE 6.9 mph - N/A   Clear
2:16 AM 32.0 °F 24.8 °F 24.8 °F 75% 30.30 in 10.0 mi SE 8.1 mph - N/A   Clear
2:36 AM 32.0 °F 26.4 °F 24.8 °F 75% 30.31 in 10.0 mi SSE 5.8 mph - N/A   Clear
2:56 AM 32.0 °F 25.6 °F 24.8 °F 75% 30.31 in 10.0 mi SSE 6.9 mph - N/A   Clear
3:16 AM 30.2 °F 24.3 °F 24.8 °F 80% 30.32 in 10.0 mi SE 5.8 mph - N/A   Clear
3:36 AM 30.2 °F 25.4 °F 23.0 °F 75% 30.32 in 10.0 mi SSE 4.6 mph - N/A   Clear
3:56 AM 30.2 °F 24.3 °F 24.8 °F 80% 30.33 in 10.0 mi SE 5.8 mph - N/A   Clear
4:16 AM 30.2 °F 23.4 °F 24.8 °F 80% 30.33 in 10.0 mi SSE 6.9 mph - N/A   Clear
4:36 AM 30.2 °F 24.3 °F 24.8 °F 80% 30.34 in 10.0 mi SE 5.8 mph - N/A   Clear
4:56 AM 30.2 °F 24.3 °F 24.8 °F 80% 30.34 in 10.0 mi SE 5.8 mph - N/A   Clear
5:16 AM 30.2 °F 24.3 °F 24.8 °F 80% 30.34 in 10.0 mi SE 5.8 mph - N/A   Clear
5:36 AM 30.2 °F 24.3 °F 24.8 °F 80% 30.34 in 10.0 mi SE 5.8 mph - N/A   Clear
5:56 AM 30.2 °F 25.4 °F 26.6 °F 86% 30.35 in 10.0 mi SE 4.6 mph - N/A   Clear
6:16 AM 30.2 °F 26.7 °F 24.8 °F 80% 30.35 in 10.0 mi SE 3.5 mph - N/A   Clear
6:36 AM 30.2 °F 25.4 °F 26.6 °F 86% 30.35 in 10.0 mi SE 4.6 mph - N/A   Clear
6:56 AM 32.0 °F 26.4 °F 26.6 °F 80% 30.35 in 10.0 mi SE 5.8 mph - N/A   Clear
7:16 AM 33.8 °F 30.8 °F 26.6 °F 75% 30.35 in 10.0 mi ESE 3.5 mph - N/A   Clear
7:36 AM 33.8 °F 29.6 °F 26.6 °F 75% 30.36 in 10.0 mi East 4.6 mph - N/A   Clear
7:56 AM 33.8 °F - 26.6 °F 75% 30.36 in 10.0 mi Calm Calm - N/A   Clear
8:16 AM 35.6 °F - 28.4 °F 75% 30.36 in 10.0 mi Calm Calm - N/A   Clear
8:36 AM 35.6 °F - 28.4 °F 75% 30.37 in 10.0 mi Calm Calm - N/A   Clear
8:56 AM 35.6 °F - 26.6 °F 70% 30.36 in 10.0 mi Calm Calm - N/A   Clear
9:16 AM 37.4 °F 32.8 °F 26.6 °F 65% 30.37 in 10.0 mi NNW 5.8 mph - N/A   Clear
9:36 AM 37.4 °F 33.8 °F 26.6 °F 65% 30.37 in 10.0 mi NNW 4.6 mph - N/A   Clear
9:56 AM 37.4 °F 33.8 °F 26.6 °F 65% 30.38 in 10.0 mi NW 4.6 mph - N/A   Clear
10:16 AM 39.2 °F - 24.8 °F 56% 30.38 in 10.0 mi Calm Calm - N/A   Clear
10:36 AM 41.0 °F - 23.0 °F 49% 30.38 in 10.0 mi Calm Calm - N/A   Clear
10:56 AM 42.8 °F 40.1 °F 21.2 °F 42% 30.38 in 10.0 mi NNW 4.6 mph - N/A   Clear
11:16 AM 42.8 °F 39.3 °F 21.2 °F 42% 30.38 in 10.0 mi NW 5.8 mph - N/A   Clear
11:36 AM 42.8 °F 40.1 °F 19.4 °F 39% 30.39 in 10.0 mi North 4.6 mph - N/A   Clear
11:56 AM 44.6 °F 40.7 °F 19.4 °F 37% 30.39 in 10.0 mi NNW 6.9 mph - N/A   Clear
12:16 PM 44.6 °F 40.7 °F 17.6 °F 34% 30.39 in 10.0 mi NNW 6.9 mph - N/A   Clear
12:36 PM 44.6 °F 41.4 °F 17.6 °F 34% 30.39 in 10.0 mi NNW 5.8 mph - N/A   Clear
12:56 PM 44.6 °F 42.2 °F 17.6 °F 34% 30.39 in 10.0 mi NE 4.6 mph - N/A   Partly Cloudy
1:16 PM 44.6 °F 43.1 °F 17.6 °F 34% 30.39 in 10.0 mi ESE 3.5 mph - N/A   Partly Cloudy
1:36 PM 44.6 °F 43.1 °F 15.8 °F 31% 30.39 in 10.0 mi East 3.5 mph - N/A   Partly Cloudy
1:56 PM 46.4 °F 45.2 °F 17.6 °F 32% 30.39 in 10.0 mi East 3.5 mph - N/A   Partly Cloudy
2:16 PM 46.4 °F 41.5 °F 19.4 °F 34% 30.39 in 10.0 mi ENE 10.4 mph - N/A   Partly Cloudy
2:36 PM 46.4 °F 42.9 °F 17.6 °F 32% 30.39 in 10.0 mi NE 6.9 mph - N/A   Partly Cloudy
2:56 PM 46.4 °F 41.9 °F 17.6 °F 32% 30.39 in 10.0 mi ENE 9.2 mph - N/A   Partly Cloudy
3:16 PM 46.4 °F 42.4 °F 15.8 °F 29% 30.39 in 10.0 mi East 8.1 mph - N/A   Clear
3:36 PM 46.4 °F 43.5 °F 17.6 °F 32% 30.39 in 10.0 mi East 5.8 mph - N/A   Clear
3:56 PM 46.4 °F 41.9 °F 17.6 °F 32% 30.39 in 10.0 mi ENE 9.2 mph - N/A   Clear
4:16 PM 46.4 °F 42.4 °F 19.4 °F 34% 30.39 in 10.0 mi NE 8.1 mph - N/A   Clear
4:36 PM 46.4 °F 41.5 °F 17.6 °F 32% 30.39 in 10.0 mi ENE 10.4 mph - N/A   Clear
4:56 PM 46.4 °F 42.4 °F 19.4 °F 34% 30.39 in 10.0 mi NE 8.1 mph - N/A   Clear
5:16 PM 46.4 °F 42.4 °F 17.6 °F 32% 30.39 in 10.0 mi ENE 8.1 mph - N/A   Clear
5:36 PM 46.4 °F 42.4 °F 17.6 °F 32% 30.39 in 10.0 mi ENE 8.1 mph - N/A   Clear
5:56 PM 44.6 °F 39.7 °F 17.6 °F 34% 30.39 in 10.0 mi ENE 9.2 mph - N/A   Clear
6:16 PM 44.6 °F 40.2 °F 17.6 °F 34% 30.39 in 10.0 mi NE 8.1 mph - N/A   Clear
6:36 PM 44.6 °F 39.7 °F 17.6 °F 34% 30.39 in 10.0 mi NE 9.2 mph - N/A   Clear
6:56 PM 44.6 °F 39.7 °F 17.6 °F 34% 30.40 in 10.0 mi ENE 9.2 mph - N/A   Clear
7:16 PM 44.6 °F 39.2 °F 17.6 °F 34% 30.39 in 10.0 mi ENE 10.4 mph - N/A   Clear
7:36 PM 42.8 °F 37.5 °F 17.6 °F 36% 30.40 in 10.0 mi ENE 9.2 mph - N/A   Clear
7:56 PM 42.8 °F 37.0 °F 17.6 °F 36% 30.40 in 10.0 mi ENE 10.4 mph - N/A   Clear
8:16 PM 42.8 °F 38.6 °F 17.6 °F 36% 30.41 in 10.0 mi ENE 6.9 mph - N/A   Clear
8:36 PM 42.8 °F 39.3 °F 15.8 °F 34% 30.41 in 10.0 mi East 5.8 mph - N/A   Clear
8:56 PM 39.2 °F 37.0 °F 15.8 °F 39% 30.42 in 10.0 mi SE 3.5 mph - N/A   Clear
9:16 PM 39.2 °F 35.0 °F 15.8 °F 39% 30.42 in 10.0 mi SSE 5.8 mph - N/A   Clear
9:36 PM 37.4 °F 33.8 °F 15.8 °F 41% 30.43 in 10.0 mi SE 4.6 mph - N/A   Clear
9:56 PM 35.6 °F 30.7 °F 15.8 °F 44% 30.43 in 10.0 mi SE 5.8 mph - N/A   Clear
10:16 PM 35.6 °F 29.9 °F 17.6 °F 48% 30.43 in 10.0 mi SE 6.9 mph - N/A   Clear
10:36 PM 35.6 °F 30.7 °F 15.8 °F 44% 30.43 in 10.0 mi SSE 5.8 mph - N/A   Clear
10:56 PM 33.8 °F 29.6 °F 15.8 °F 48% 30.43 in 10.0 mi SSE 4.6 mph - N/A   Clear
11:16 PM 35.6 °F 31.7 °F 15.8 °F 44% 30.44 in 10.0 mi SSE 4.6 mph - N/A   Clear
11:36 PM 33.8 °F 27.0 °F 19.4 °F 56% 30.44 in 10.0 mi SSE 8.1 mph - N/A   Clear
11:56 PM 35.6 °F 29.9 °F 19.4 °F 52% 30.44 in 10.0 mi SE 6.9 mph - N/A   Clear